Time,TemperatureF,DewpointF,PressureIn,WindDirection,WindDirectionDegrees,WindSpeedMPH,WindSpeedGustMPH,Humidity,HourlyPrecipIn,Conditions,Clouds,dailyrainin,SoftwareType,DateUTC
2013-06-05 00:02:00,60.3,48.5,30.03,ESE,113,0.7,5.1,65,0.00,,,0.00,WUHU216HW,2013-06-05 07:02:00,
2013-06-05 00:07:00,60.3,48.5,30.03,ENE,68,0.9,3.4,65,0.00,,,0.00,WUHU216HW,2013-06-05 07:07:00,
2013-06-05 00:12:00,60.1,48.3,30.03,NE,45,2.5,4.0,65,0.00,,,0.00,WUHU216HW,2013-06-05 07:12:00,
2013-06-05 00:17:00,60.1,48.3,30.03,ENE,68,1.3,4.7,65,0.00,,,0.00,WUHU216HW,2013-06-05 07:17:00,
2013-06-05 00:22:00,60.1,48.3,30.03,NNE,23,1.1,4.7,65,0.00,,,0.00,WUHU216HW,2013-06-05 07:22:00,
2013-06-05 00:27:00,59.9,48.2,30.03,NE,45,0.4,2.9,65,0.00,,,0.00,WUHU216HW,2013-06-05 07:27:00,
2013-06-05 00:32:00,59.9,48.2,30.03,SSE,158,0.0,1.6,65,0.00,,,0.00,WUHU216HW,2013-06-05 07:32:00,
2013-06-05 00:37:00,59.9,48.2,30.03,West,270,0.0,1.6,65,0.00,,,0.00,WUHU216HW,2013-06-05 07:37:00,
2013-06-05 00:42:00,59.9,48.2,30.03,SW,225,0.9,1.1,65,0.00,,,0.00,WUHU216HW,2013-06-05 07:42:00,
2013-06-05 00:47:00,59.9,48.2,30.03,SW,225,1.1,1.3,65,0.00,,,0.00,WUHU216HW,2013-06-05 07:47:00,
2013-06-05 00:52:00,59.8,48.0,30.03,WSW,248,0.7,1.3,65,0.00,,,0.00,WUHU216HW,2013-06-05 07:52:00,
2013-06-05 00:57:00,59.4,48.1,30.03,WSW,248,0.7,1.1,66,0.00,,,0.00,WUHU216HW,2013-06-05 07:57:00,
2013-06-05 01:02:00,59.2,47.9,30.03,WSW,248,0.9,1.1,66,0.00,,,0.00,WUHU216HW,2013-06-05 08:02:00,
2013-06-05 01:07:00,58.9,47.9,30.03,WSW,248,1.1,1.3,67,0.00,,,0.00,WUHU216HW,2013-06-05 08:07:00,
2013-06-05 01:12:00,58.7,47.7,30.03,SW,225,1.3,1.3,67,0.00,,,0.00,WUHU216HW,2013-06-05 08:12:00,
2013-06-05 01:17:00,58.1,47.6,30.03,WSW,248,1.3,1.6,68,0.00,,,0.00,WUHU216HW,2013-06-05 08:17:00,
2013-06-05 01:22:00,58.0,47.4,30.03,WSW,248,1.6,1.8,68,0.00,,,0.00,WUHU216HW,2013-06-05 08:22:00,
2013-06-05 01:27:00,57.4,47.4,30.03,West,270,1.6,1.8,69,0.00,,,0.00,WUHU216HW,2013-06-05 08:27:00,
2013-06-05 01:32:00,57.2,47.2,30.03,West,270,0.0,1.8,69,0.00,,,0.00,WUHU216HW,2013-06-05 08:32:00,
2013-06-05 01:37:00,56.9,47.2,30.03,NE,45,0.0,1.8,70,0.00,,,0.00,WUHU216HW,2013-06-05 08:37:00,
2013-06-05 01:42:00,56.7,47.1,30.03,East,90,0.2,1.6,70,0.00,,,0.00,WUHU216HW,2013-06-05 08:42:00,
2013-06-05 01:47:00,56.7,47.1,30.03,ESE,113,0.9,0.9,70,0.00,,,0.00,WUHU216HW,2013-06-05 08:47:00,
2013-06-05 01:52:00,56.9,47.2,30.03,NNE,23,0.0,1.3,70,0.00,,,0.00,WUHU216HW,2013-06-05 08:52:00,
2013-06-05 01:57:00,56.9,47.2,30.03,NNE,23,0.0,1.3,70,0.00,,,0.00,WUHU216HW,2013-06-05 08:57:00,
2013-06-05 02:02:00,56.9,47.2,30.03,NNE,23,0.0,0.7,70,0.00,,,0.00,WUHU216HW,2013-06-05 09:02:00,
2013-06-05 02:07:00,56.9,47.2,30.03,NNE,23,0.0,0.7,70,0.00,,,0.00,WUHU216HW,2013-06-05 09:07:00,
2013-06-05 02:12:00,56.9,47.2,30.03,NNW,338,0.2,0.7,70,0.00,,,0.00,WUHU216HW,2013-06-05 09:12:00,
2013-06-05 02:17:00,56.9,47.5,30.03,NE,45,0.0,0.7,71,0.00,,,0.00,WUHU216HW,2013-06-05 09:17:00,
2013-06-05 02:22:00,56.9,47.5,30.03,ESE,113,0.0,0.7,71,0.00,,,0.00,WUHU216HW,2013-06-05 09:22:00,
2013-06-05 02:27:00,56.9,47.5,30.03,North,0,0.0,1.1,71,0.00,,,0.00,WUHU216HW,2013-06-05 09:27:00,
2013-06-05 02:32:00,56.9,47.5,30.03,WNW,293,0.0,1.1,71,0.00,,,0.00,WUHU216HW,2013-06-05 09:32:00,
2013-06-05 02:37:00,56.9,47.5,30.03,WSW,248,0.0,0.7,71,0.00,,,0.00,WUHU216HW,2013-06-05 09:37:00,
2013-06-05 02:42:00,56.7,47.4,30.03,SE,135,0.0,0.7,71,0.00,,,0.00,WUHU216HW,2013-06-05 09:42:00,
2013-06-05 02:47:00,56.5,47.3,30.03,ENE,68,0.7,1.6,71,0.00,,,0.00,WUHU216HW,2013-06-05 09:47:00,
2013-06-05 02:52:00,56.3,47.4,30.03,NNE,23,0.0,1.6,72,0.00,,,0.00,WUHU216HW,2013-06-05 09:52:00,
2013-06-05 02:57:00,56.2,47.3,30.03,West,270,0.4,0.7,72,0.00,,,0.00,WUHU216HW,2013-06-05 09:57:00,
2013-06-05 03:02:00,56.2,47.3,30.03,WNW,293,0.0,0.9,72,0.00,,,0.00,WUHU216HW,2013-06-05 10:02:00,
2013-06-05 03:07:00,56.0,47.1,30.03,East,90,0.4,1.3,72,0.00,,,0.00,WUHU216HW,2013-06-05 10:07:00,
2013-06-05 03:12:00,56.0,47.1,30.02,ESE,113,0.9,1.6,72,0.00,,,0.00,WUHU216HW,2013-06-05 10:12:00,
2013-06-05 03:17:00,56.0,47.1,30.02,NNE,23,0.0,1.6,72,0.00,,,0.00,WUHU216HW,2013-06-05 10:17:00,
2013-06-05 03:22:00,56.0,47.1,30.02,SSE,158,0.0,1.1,72,0.00,,,0.00,WUHU216HW,2013-06-05 10:22:00,
2013-06-05 03:27:00,56.2,47.3,30.02,WSW,248,0.4,0.9,72,0.00,,,0.00,WUHU216HW,2013-06-05 10:27:00,
2013-06-05 03:32:00,56.0,47.1,30.02,NNE,23,0.4,1.1,72,0.00,,,0.00,WUHU216HW,2013-06-05 10:32:00,
2013-06-05 03:37:00,56.0,47.4,30.03,West,270,0.7,1.1,73,0.00,,,0.00,WUHU216HW,2013-06-05 10:37:00,
2013-06-05 03:42:00,56.0,47.4,30.03,WSW,248,0.7,0.9,73,0.00,,,0.00,WUHU216HW,2013-06-05 10:42:00,
2013-06-05 03:47:00,55.8,47.3,30.03,West,270,1.1,1.1,73,0.00,,,0.00,WUHU216HW,2013-06-05 10:47:00,
2013-06-05 03:52:00,55.6,47.1,30.03,West,270,0.2,1.3,73,0.00,,,0.00,WUHU216HW,2013-06-05 10:52:00,
2013-06-05 03:57:00,55.4,46.9,30.03,WSW,248,1.1,1.6,73,0.00,,,0.00,WUHU216HW,2013-06-05 10:57:00,
2013-06-05 04:02:00,55.1,46.6,30.03,SW,225,1.1,2.0,73,0.00,,,0.00,WUHU216HW,2013-06-05 11:02:00,
2013-06-05 04:07:00,54.9,46.7,30.03,WSW,248,1.6,2.0,74,0.00,,,0.00,WUHU216HW,2013-06-05 11:07:00,
2013-06-05 04:12:00,54.5,46.5,30.04,SW,225,1.1,2.0,74,0.00,,,0.00,WUHU216HW,2013-06-05 11:12:00,
2013-06-05 04:17:00,54.4,46.3,30.04,SW,225,1.1,2.0,74,0.00,,,0.00,WUHU216HW,2013-06-05 11:17:00,
2013-06-05 04:22:00,54.0,46.3,30.04,WSW,248,1.6,2.5,75,0.00,,,0.00,WUHU216HW,2013-06-05 11:22:00,
2013-06-05 04:27:00,53.8,46.1,30.04,SW,225,1.6,2.5,75,0.00,,,0.00,WUHU216HW,2013-06-05 11:27:00,
2013-06-05 04:32:00,53.6,45.9,30.03,WSW,248,0.9,2.5,75,0.00,,,0.00,WUHU216HW,2013-06-05 11:32:00,
2013-06-05 04:37:00,53.6,45.9,30.03,WSW,248,1.1,2.0,75,0.00,,,0.00,WUHU216HW,2013-06-05 11:37:00,
2013-06-05 04:42:00,53.5,45.7,30.03,SW,225,1.8,1.8,75,0.00,,,0.00,WUHU216HW,2013-06-05 11:42:00,
2013-06-05 04:47:00,53.5,45.7,30.03,SW,225,1.3,1.8,75,0.00,,,0.00,WUHU216HW,2013-06-05 11:47:00,
2013-06-05 04:52:00,53.3,45.5,30.03,WSW,248,1.8,2.0,75,0.00,,,0.00,WUHU216HW,2013-06-05 11:52:00,
2013-06-05 04:57:00,52.9,45.2,30.03,WSW,248,1.3,2.0,75,0.00,,,0.00,WUHU216HW,2013-06-05 11:57:00,
2013-06-05 05:02:00,52.9,45.5,30.03,WSW,248,1.8,1.8,76,0.00,,,0.00,WUHU216HW,2013-06-05 12:02:00,
2013-06-05 05:07:00,52.7,45.4,30.03,WSW,248,1.6,2.0,76,0.00,,,0.00,WUHU216HW,2013-06-05 12:07:00,
2013-06-05 05:12:00,52.7,45.4,30.03,SW,225,1.8,2.0,76,0.00,,,0.00,WUHU216HW,2013-06-05 12:12:00,
2013-06-05 05:17:00,52.6,45.2,30.03,WSW,248,0.9,1.8,76,0.00,,,0.00,WUHU216HW,2013-06-05 12:17:00,
2013-06-05 05:22:00,52.6,45.2,30.03,SW,225,0.4,1.8,76,0.00,,,0.00,WUHU216HW,2013-06-05 12:22:00,
2013-06-05 05:27:00,52.6,45.5,30.03,SW,225,1.1,1.1,77,0.00,,,0.00,WUHU216HW,2013-06-05 12:27:00,
2013-06-05 05:32:00,52.7,45.7,30.03,WSW,248,0.7,1.1,77,0.00,,,0.00,WUHU216HW,2013-06-05 12:32:00,
2013-06-05 05:37:00,52.7,45.7,30.03,WSW,248,1.1,1.3,77,0.00,,,0.00,WUHU216HW,2013-06-05 12:37:00,
2013-06-05 05:42:00,52.7,45.7,30.03,WSW,248,1.1,1.8,77,0.00,,,0.00,WUHU216HW,2013-06-05 12:42:00,
2013-06-05 05:47:00,52.7,45.7,30.03,SW,225,1.1,1.8,77,0.00,,,0.00,WUHU216HW,2013-06-05 12:47:00,
2013-06-05 05:52:00,52.9,45.9,30.03,WSW,248,0.9,1.6,77,0.00,,,0.00,WUHU216HW,2013-06-05 12:52:00,
2013-06-05 05:57:00,52.9,46.3,30.03,WSW,248,0.7,1.3,78,0.00,,,0.00,WUHU216HW,2013-06-05 12:57:00,
2013-06-05 06:02:00,53.3,46.6,30.04,WSW,248,1.1,1.3,78,0.00,,,0.00,WUHU216HW,2013-06-05 13:02:00,
2013-06-05 06:07:00,53.5,46.8,30.04,WSW,248,0.0,1.1,78,0.00,,,0.00,WUHU216HW,2013-06-05 13:07:00,
2013-06-05 06:12:00,53.8,47.2,30.04,WSW,248,0.2,1.1,78,0.00,,,0.00,WUHU216HW,2013-06-05 13:12:00,
2013-06-05 06:17:00,54.0,47.4,30.04,SW,225,0.0,0.9,78,0.00,,,0.00,WUHU216HW,2013-06-05 13:17:00,
2013-06-05 06:22:00,54.2,47.5,30.04,WSW,248,0.0,0.9,78,0.00,,,0.00,WUHU216HW,2013-06-05 13:22:00,
2013-06-05 06:27:00,54.4,47.3,30.04,WSW,248,0.4,0.7,77,0.00,,,0.00,WUHU216HW,2013-06-05 13:27:00,
2013-06-05 06:32:00,54.7,48.0,30.04,WSW,248,0.4,0.7,78,0.00,,,0.00,WUHU216HW,2013-06-05 13:32:00,
2013-06-05 06:37:00,54.9,48.2,30.04,WSW,248,0.4,0.7,78,0.00,,,0.00,WUHU216HW,2013-06-05 13:37:00,
2013-06-05 06:42:00,55.1,48.3,30.05,WSW,248,1.1,1.3,78,0.00,,,0.00,WUHU216HW,2013-06-05 13:42:00,
2013-06-05 06:47:00,55.3,48.5,30.05,SW,225,1.1,1.3,78,0.00,,,0.00,WUHU216HW,2013-06-05 13:47:00,
2013-06-05 06:52:00,55.4,48.6,30.05,WSW,248,0.4,1.3,78,0.00,,,0.00,WUHU216HW,2013-06-05 13:52:00,
2013-06-05 06:57:00,55.6,48.8,30.05,WSW,248,0.4,1.1,78,0.00,,,0.00,WUHU216HW,2013-06-05 13:57:00,
2013-06-05 07:02:00,55.8,49.0,30.05,SW,225,0.0,0.7,78,0.00,,,0.00,WUHU216HW,2013-06-05 14:02:00,
2013-06-05 07:07:00,56.2,49.3,30.04,SW,225,0.7,0.7,78,0.00,,,0.00,WUHU216HW,2013-06-05 14:07:00,
2013-06-05 07:12:00,56.5,49.7,30.04,SW,225,0.0,0.9,78,0.00,,,0.00,WUHU216HW,2013-06-05 14:12:00,
2013-06-05 07:17:00,56.9,50.0,30.05,WSW,248,0.0,0.9,78,0.00,,,0.00,WUHU216HW,2013-06-05 14:17:00,
2013-06-05 07:22:00,57.2,50.0,30.05,SW,225,0.4,0.7,77,0.00,,,0.00,WUHU216HW,2013-06-05 14:22:00,
2013-06-05 07:27:00,58.0,50.4,30.05,South,180,0.0,0.7,76,0.00,,,0.00,WUHU216HW,2013-06-05 14:27:00,
2013-06-05 07:32:00,58.5,50.6,30.05,SE,135,0.0,0.4,75,0.00,,,0.00,WUHU216HW,2013-06-05 14:32:00,
2013-06-05 07:37:00,58.7,50.4,30.06,WSW,248,0.7,1.1,74,0.00,,,0.00,WUHU216HW,2013-06-05 14:37:00,
2013-06-05 07:42:00,59.0,50.8,30.06,SW,225,2.0,2.0,74,0.00,,,0.00,WUHU216HW,2013-06-05 14:42:00,
2013-06-05 07:47:00,59.8,51.1,30.07,South,180,3.4,3.4,73,0.00,,,0.00,WUHU216HW,2013-06-05 14:47:00,
2013-06-05 07:52:00,60.8,52.2,30.07,WSW,248,0.4,3.4,73,0.00,,,0.00,WUHU216HW,2013-06-05 14:52:00,
2013-06-05 07:57:00,61.6,52.1,30.06,SW,225,2.7,3.4,71,0.00,,,0.00,WUHU216HW,2013-06-05 14:57:00,
2013-06-05 08:02:00,62.1,52.7,30.06,ENE,68,2.9,3.4,71,0.00,,,0.00,WUHU216HW,2013-06-05 15:02:00,
2013-06-05 08:07:00,61.6,52.1,30.06,NNE,23,1.6,2.9,71,0.00,,,0.00,WUHU216HW,2013-06-05 15:07:00,
2013-06-05 08:12:00,61.2,52.2,30.06,ENE,68,0.4,2.9,72,0.00,,,0.00,WUHU216HW,2013-06-05 15:12:00,
2013-06-05 08:17:00,61.0,52.4,30.07,ENE,68,1.1,2.2,73,0.00,,,0.00,WUHU216HW,2013-06-05 15:17:00,
2013-06-05 08:22:00,61.4,52.7,30.07,East,90,1.8,2.7,73,0.00,,,0.00,WUHU216HW,2013-06-05 15:22:00,
2013-06-05 08:27:00,61.6,51.8,30.07,North,0,2.0,4.0,70,0.00,,,0.00,WUHU216HW,2013-06-05 15:27:00,
2013-06-05 08:32:00,61.2,51.5,30.07,North,0,0.9,4.0,70,0.00,,,0.00,WUHU216HW,2013-06-05 15:32:00,
2013-06-05 08:37:00,61.0,51.3,30.07,NE,45,1.6,2.5,70,0.00,,,0.00,WUHU216HW,2013-06-05 15:37:00,
2013-06-05 08:42:00,61.6,51.4,30.07,NE,45,2.0,2.2,69,0.00,,,0.00,WUHU216HW,2013-06-05 15:42:00,
2013-06-05 08:47:00,62.1,52.3,30.07,NE,45,1.3,2.2,70,0.00,,,0.00,WUHU216HW,2013-06-05 15:47:00,
2013-06-05 08:52:00,62.8,52.5,30.07,NE,45,0.2,2.2,69,0.00,,,0.00,WUHU216HW,2013-06-05 15:52:00,
2013-06-05 08:57:00,63.4,52.7,30.07,SE,135,1.6,2.2,68,0.00,,,0.00,WUHU216HW,2013-06-05 15:57:00,
2013-06-05 09:02:00,63.4,52.2,30.07,NE,45,2.5,2.7,67,0.00,,,0.00,WUHU216HW,2013-06-05 16:02:00,
2013-06-05 09:07:00,63.4,51.8,30.07,North,0,1.8,3.6,66,0.00,,,0.00,WUHU216HW,2013-06-05 16:07:00,
2013-06-05 09:12:00,63.7,51.7,30.07,NE,45,2.2,3.6,65,0.00,,,0.00,WUHU216HW,2013-06-05 16:12:00,
2013-06-05 09:17:00,63.9,52.3,30.07,North,0,1.3,2.9,66,0.00,,,0.00,WUHU216HW,2013-06-05 16:17:00,
2013-06-05 09:22:00,64.3,52.2,30.08,ENE,68,2.9,3.1,65,0.00,,,0.00,WUHU216HW,2013-06-05 16:22:00,
2013-06-05 09:27:00,64.3,52.2,30.08,North,0,1.1,3.1,65,0.00,,,0.00,WUHU216HW,2013-06-05 16:27:00,
2013-06-05 09:32:00,64.3,51.8,30.08,ENE,68,3.4,3.6,64,0.00,,,0.00,WUHU216HW,2013-06-05 16:32:00,
2013-06-05 09:37:00,63.7,51.7,30.08,ENE,68,2.0,3.6,65,0.00,,,0.00,WUHU216HW,2013-06-05 16:37:00,
2013-06-05 09:42:00,63.7,51.7,30.08,ENE,68,1.8,3.4,65,0.00,,,0.00,WUHU216HW,2013-06-05 16:42:00,
2013-06-05 09:47:00,63.7,51.7,30.08,NE,45,0.4,2.9,65,0.00,,,0.00,WUHU216HW,2013-06-05 16:47:00,
2013-06-05 09:52:00,63.7,51.7,30.08,ENE,68,2.5,2.5,65,0.00,,,0.00,WUHU216HW,2013-06-05 16:52:00,
2013-06-05 09:57:00,63.7,51.7,30.08,North,0,1.1,3.1,65,0.00,,,0.00,WUHU216HW,2013-06-05 16:57:00,
2013-06-05 10:02:00,63.7,52.1,30.08,NNE,23,2.5,3.1,66,0.00,,,0.00,WUHU216HW,2013-06-05 17:02:00,
2013-06-05 10:07:00,63.7,51.7,30.08,ENE,68,2.7,3.4,65,0.00,,,0.00,WUHU216HW,2013-06-05 17:07:00,
2013-06-05 10:12:00,63.4,51.8,30.08,NNE,23,3.6,3.6,66,0.00,,,0.00,WUHU216HW,2013-06-05 17:12:00,
2013-06-05 10:17:00,63.5,51.9,30.08,North,0,0.9,3.6,66,0.00,,,0.00,WUHU216HW,2013-06-05 17:17:00,
2013-06-05 10:22:00,63.7,52.6,30.08,North,0,1.3,3.4,67,0.00,,,0.00,WUHU216HW,2013-06-05 17:22:00,
2013-06-05 10:27:00,64.4,52.8,30.08,East,90,1.6,3.1,66,0.00,,,0.00,WUHU216HW,2013-06-05 17:27:00,
2013-06-05 10:32:00,64.4,52.8,30.08,NE,45,2.0,3.1,66,0.00,,,0.00,WUHU216HW,2013-06-05 17:32:00,
2013-06-05 10:37:00,64.8,52.8,30.08,ENE,68,1.1,3.1,65,0.00,,,0.00,WUHU216HW,2013-06-05 17:37:00,
2013-06-05 10:42:00,64.8,52.8,30.08,NE,45,0.9,3.1,65,0.00,,,0.00,WUHU216HW,2013-06-05 17:42:00,
2013-06-05 10:47:00,64.4,52.4,30.08,ENE,68,1.8,2.0,65,0.00,,,0.00,WUHU216HW,2013-06-05 17:47:00,
2013-06-05 10:52:00,65.2,53.1,30.08,NNE,23,1.8,2.0,65,0.00,,,0.00,WUHU216HW,2013-06-05 17:52:00,
2013-06-05 10:57:00,65.7,53.6,30.08,ENE,68,2.0,2.0,65,0.00,,,0.00,WUHU216HW,2013-06-05 17:57:00,
2013-06-05 11:02:00,66.1,53.9,30.08,ENE,68,0.7,2.2,65,0.00,,,0.00,WUHU216HW,2013-06-05 18:02:00,
2013-06-05 11:07:00,66.2,53.6,30.08,ENE,68,2.2,2.5,64,0.00,,,0.00,WUHU216HW,2013-06-05 18:07:00,
2013-06-05 11:12:00,66.4,53.0,30.08,NNE,23,2.2,2.7,62,0.00,,,0.00,WUHU216HW,2013-06-05 18:12:00,
2013-06-05 11:17:00,67.0,53.6,30.08,ENE,68,2.5,3.1,62,0.00,,,0.00,WUHU216HW,2013-06-05 18:17:00,
2013-06-05 11:22:00,67.3,54.7,30.08,ENE,68,3.1,3.1,64,0.00,,,0.00,WUHU216HW,2013-06-05 18:22:00,
2013-06-05 11:27:00,67.9,54.8,30.08,North,0,1.8,3.4,63,0.00,,,0.00,WUHU216HW,2013-06-05 18:27:00,
2013-06-05 11:32:00,68.8,55.2,30.08,ENE,68,1.1,3.4,62,0.00,,,0.00,WUHU216HW,2013-06-05 18:32:00,
2013-06-05 11:37:00,68.8,53.9,30.08,ENE,68,1.8,2.5,59,0.00,,,0.00,WUHU216HW,2013-06-05 18:37:00,
2013-06-05 11:42:00,68.2,53.4,30.08,NNE,23,1.8,2.5,59,0.00,,,0.00,WUHU216HW,2013-06-05 18:42:00,
2013-06-05 11:47:00,67.9,53.9,30.08,NE,45,1.8,2.5,61,0.00,,,0.00,WUHU216HW,2013-06-05 18:47:00,
2013-06-05 11:52:00,68.0,54.1,30.08,NE,45,1.1,2.5,61,0.00,,,0.00,WUHU216HW,2013-06-05 18:52:00,
2013-06-05 11:57:00,68.4,54.0,30.08,ENE,68,1.8,2.5,60,0.00,,,0.00,WUHU216HW,2013-06-05 18:57:00,
2013-06-05 12:02:00,68.8,54.4,30.08,ENE,68,1.8,2.5,60,0.00,,,0.00,WUHU216HW,2013-06-05 19:02:00,
2013-06-05 12:07:00,68.8,54.4,30.08,ENE,68,2.0,2.5,60,0.00,,,0.00,WUHU216HW,2013-06-05 19:07:00,
2013-06-05 12:12:00,69.3,54.4,30.08,ENE,68,2.5,2.9,59,0.00,,,0.00,WUHU216HW,2013-06-05 19:12:00,
2013-06-05 12:17:00,69.1,54.2,30.07,NE,45,1.1,4.0,59,0.00,,,0.00,WUHU216HW,2013-06-05 19:17:00,
2013-06-05 12:22:00,69.5,55.5,30.07,ENE,68,3.1,4.0,61,0.00,,,0.00,WUHU216HW,2013-06-05 19:22:00,
2013-06-05 12:27:00,70.2,55.3,30.07,North,0,2.7,4.0,59,0.00,,,0.00,WUHU216HW,2013-06-05 19:27:00,
2013-06-05 12:32:00,70.7,56.3,30.07,SE,135,0.9,4.0,60,0.00,,,0.00,WUHU216HW,2013-06-05 19:32:00,
2013-06-05 12:37:00,71.1,56.1,30.08,ESE,113,3.4,4.0,59,0.00,,,0.00,WUHU216HW,2013-06-05 19:37:00,
2013-06-05 12:42:00,71.1,56.1,30.07,ENE,68,2.2,4.0,59,0.00,,,0.00,WUHU216HW,2013-06-05 19:42:00,
2013-06-05 12:47:00,70.6,54.5,30.07,ENE,68,3.8,4.0,57,0.00,,,0.00,WUHU216HW,2013-06-05 19:47:00,
2013-06-05 12:52:00,69.7,54.7,30.07,ESE,113,3.1,4.0,59,0.00,,,0.00,WUHU216HW,2013-06-05 19:52:00,
2013-06-05 12:57:00,69.8,55.9,30.07,ENE,68,1.8,4.7,61,0.00,,,0.00,WUHU216HW,2013-06-05 19:57:00,
2013-06-05 13:02:00,70.4,55.9,30.07,NE,45,1.8,4.7,60,0.00,,,0.00,WUHU216HW,2013-06-05 20:02:00,
2013-06-05 13:07:00,70.9,56.4,30.07,NNW,338,0.2,4.0,60,0.00,,,0.00,WUHU216HW,2013-06-05 20:07:00,
2013-06-05 13:12:00,72.0,56.3,30.08,ENE,68,4.0,4.0,58,0.00,,,0.00,WUHU216HW,2013-06-05 20:12:00,
2013-06-05 13:17:00,72.4,56.2,30.07,WNW,293,3.1,4.5,57,0.00,,,0.00,WUHU216HW,2013-06-05 20:17:00,
2013-06-05 13:22:00,73.1,56.9,30.07,NE,45,4.0,4.5,57,0.00,,,0.00,WUHU216HW,2013-06-05 20:22:00,
2013-06-05 13:27:00,72.9,55.7,30.08,ESE,113,3.1,4.5,55,0.00,,,0.00,WUHU216HW,2013-06-05 20:27:00,
2013-06-05 13:32:00,72.9,54.6,30.08,ENE,68,3.6,4.7,53,0.00,,,0.00,WUHU216HW,2013-06-05 20:32:00,
2013-06-05 13:38:00,72.9,54.6,30.08,ENE,68,3.8,6.0,53,0.00,,,0.00,WUHU216HW,2013-06-05 20:38:00,
2013-06-05 13:42:00,72.4,54.2,30.08,East,90,4.7,6.0,53,0.00,,,0.00,WUHU216HW,2013-06-05 20:42:00,
2013-06-05 13:47:00,72.0,54.4,30.08,ENE,68,4.0,5.8,54,0.00,,,0.00,WUHU216HW,2013-06-05 20:47:00,
2013-06-05 13:52:00,73.1,54.4,30.08,NNW,338,1.3,4.7,52,0.00,,,0.00,WUHU216HW,2013-06-05 20:52:00,
2013-06-05 13:57:00,73.6,52.0,30.08,West,270,2.5,5.4,47,0.00,,,0.00,WUHU216HW,2013-06-05 20:57:00,
2013-06-05 14:02:00,74.0,53.6,30.08,ESE,113,2.5,5.4,49,0.00,,,0.00,WUHU216HW,2013-06-05 21:02:00,
2013-06-05 14:08:00,73.8,53.4,30.07,East,90,4.0,6.0,49,0.00,,,0.00,WUHU216HW,2013-06-05 21:08:00,
2013-06-05 14:12:00,74.2,53.7,30.07,ENE,68,3.8,6.0,49,0.00,,,0.00,WUHU216HW,2013-06-05 21:12:00,
2013-06-05 15:00:00,73.1,54.4,30.06,East,90,1.3,1.3,52,0.00,,,0.00,WUHU216HW,2013-06-05 22:00:00,
2013-06-05 15:05:00,73.1,54.4,30.06,ESE,113,2.2,3.8,52,0.00,,,0.00,WUHU216HW,2013-06-05 22:05:00,
2013-06-05 15:10:00,72.5,54.8,30.06,East,90,2.0,3.8,54,0.00,,,0.00,WUHU216HW,2013-06-05 22:10:00,
2013-06-05 15:15:00,72.4,54.2,30.05,NE,45,2.9,3.8,53,0.00,,,0.00,WUHU216HW,2013-06-05 22:15:00,
2013-06-05 15:20:00,72.5,55.4,30.05,NNE,23,1.6,4.3,55,0.00,,,0.00,WUHU216HW,2013-06-05 22:20:00,
2013-06-05 15:25:00,72.7,55.5,30.05,ENE,68,1.1,4.3,55,0.00,,,0.00,WUHU216HW,2013-06-05 22:25:00,
2013-06-05 15:30:00,72.4,55.2,30.05,East,90,2.0,3.8,55,0.00,,,0.00,WUHU216HW,2013-06-05 22:30:00,
2013-06-05 15:35:00,72.4,55.7,30.05,East,90,2.5,3.4,56,0.00,,,0.00,WUHU216HW,2013-06-05 22:35:00,
2013-06-05 15:40:00,72.4,55.2,30.05,ENE,68,3.1,3.8,55,0.00,,,0.00,WUHU216HW,2013-06-05 22:40:00,
2013-06-05 15:45:00,72.4,55.2,30.05,ENE,68,3.6,4.3,55,0.00,,,0.00,WUHU216HW,2013-06-05 22:45:00,
2013-06-05 15:50:00,71.6,55.1,30.05,ESE,113,1.8,4.3,56,0.00,,,0.00,WUHU216HW,2013-06-05 22:50:00,
2013-06-05 15:55:00,71.5,55.4,30.04,East,90,3.4,4.0,57,0.00,,,0.00,WUHU216HW,2013-06-05 22:55:00,
2013-06-05 16:00:00,71.3,56.3,30.04,NE,45,2.7,3.4,59,0.00,,,0.00,WUHU216HW,2013-06-05 23:00:00,
2013-06-05 16:05:00,70.9,55.9,30.04,North,0,1.8,4.0,59,0.00,,,0.00,WUHU216HW,2013-06-05 23:05:00,
2013-06-05 16:10:00,70.9,56.4,30.04,ENE,68,2.5,4.0,60,0.00,,,0.00,WUHU216HW,2013-06-05 23:10:00,
2013-06-05 16:15:00,70.9,56.4,30.04,ESE,113,1.1,2.9,60,0.00,,,0.00,WUHU216HW,2013-06-05 23:15:00,
2013-06-05 16:20:00,70.9,56.4,30.04,East,90,1.3,4.0,60,0.00,,,0.00,WUHU216HW,2013-06-05 23:20:00,
2013-06-05 16:25:00,70.9,56.4,30.04,East,90,2.5,4.7,60,0.00,,,0.00,WUHU216HW,2013-06-05 23:25:00,
2013-06-05 16:30:00,70.4,56.3,30.04,ENE,68,2.9,4.7,61,0.00,,,0.00,WUHU216HW,2013-06-05 23:30:00,
2013-06-05 16:35:00,70.2,56.6,30.04,NNE,23,4.0,4.7,62,0.00,,,0.00,WUHU216HW,2013-06-05 23:35:00,
2013-06-05 16:40:00,70.4,56.8,30.04,NNE,23,2.2,4.0,62,0.00,,,0.00,WUHU216HW,2013-06-05 23:40:00,
2013-06-05 16:45:00,70.9,56.9,30.04,East,90,1.8,4.0,61,0.00,,,0.00,WUHU216HW,2013-06-05 23:45:00,
2013-06-05 16:50:00,70.9,56.4,30.04,East,90,2.7,4.7,60,0.00,,,0.00,WUHU216HW,2013-06-05 23:50:00,
2013-06-05 16:55:00,70.9,56.4,30.04,ENE,68,2.5,4.7,60,0.00,,,0.00,WUHU216HW,2013-06-05 23:55:00,
2013-06-05 17:00:00,70.6,56.1,30.03,ENE,68,2.5,5.4,60,0.00,,,0.00,WUHU216HW,2013-06-06 00:00:00,
2013-06-05 17:05:00,70.6,56.5,30.03,ENE,68,2.9,5.4,61,0.00,,,0.00,WUHU216HW,2013-06-06 00:05:00,
2013-06-05 17:09:00,70.7,56.7,30.03,NNW,338,4.5,6.0,61,0.00,,,0.00,WUHU216HW,2013-06-06 00:09:00,
2013-06-05 17:14:00,71.1,57.4,30.03,ESE,113,3.1,6.0,62,0.00,,,0.00,WUHU216HW,2013-06-06 00:14:00,
2013-06-05 17:19:00,71.1,57.9,30.03,NNE,23,2.9,6.9,63,0.00,,,0.00,WUHU216HW,2013-06-06 00:19:00,
2013-06-05 17:24:00,70.7,57.1,30.03,North,0,4.7,6.9,62,0.00,,,0.00,WUHU216HW,2013-06-06 00:24:00,
2013-06-05 17:29:00,70.2,57.1,30.03,North,0,1.6,7.2,63,0.00,,,0.00,WUHU216HW,2013-06-06 00:29:00,
2013-06-05 17:34:00,70.2,57.1,30.03,North,0,1.8,7.2,63,0.00,,,0.00,WUHU216HW,2013-06-06 00:34:00,
2013-06-05 17:39:00,70.0,57.2,30.03,ESE,113,4.0,5.1,64,0.00,,,0.00,WUHU216HW,2013-06-06 00:39:00,
2013-06-05 17:44:00,69.8,56.7,30.03,NNE,23,3.6,8.7,63,0.00,,,0.00,WUHU216HW,2013-06-06 00:44:00,
2013-06-05 17:49:00,69.5,56.4,30.03,West,270,1.3,8.7,63,0.00,,,0.00,WUHU216HW,2013-06-06 00:49:00,
2013-06-05 17:54:00,69.5,56.8,30.03,North,0,1.3,6.3,64,0.00,,,0.00,WUHU216HW,2013-06-06 00:54:00,
2013-06-05 17:59:00,69.5,56.8,30.03,North,0,2.0,6.3,64,0.00,,,0.00,WUHU216HW,2013-06-06 00:59:00,
2013-06-05 18:04:00,69.5,56.8,30.03,North,0,5.8,5.8,64,0.00,,,0.00,WUHU216HW,2013-06-06 01:04:00,
2013-06-05 18:09:00,69.1,56.8,30.03,NNW,338,2.5,5.8,65,0.00,,,0.00,WUHU216HW,2013-06-06 01:09:00,
2013-06-05 18:14:00,69.1,56.8,30.03,ENE,68,3.1,5.8,65,0.00,,,0.00,WUHU216HW,2013-06-06 01:14:00,
2013-06-05 18:19:00,68.9,56.7,30.03,NNE,23,2.5,4.0,65,0.00,,,0.00,WUHU216HW,2013-06-06 01:19:00,
2013-06-05 18:24:00,68.4,56.2,30.03,North,0,2.9,5.4,65,0.00,,,0.00,WUHU216HW,2013-06-06 01:24:00,
2013-06-05 18:29:00,68.0,56.3,30.03,East,90,4.0,5.6,66,0.00,,,0.00,WUHU216HW,2013-06-06 01:29:00,
2013-06-05 18:34:00,67.9,56.1,30.02,ENE,68,2.5,5.8,66,0.00,,,0.00,WUHU216HW,2013-06-06 01:34:00,
2013-06-05 18:39:00,67.7,55.9,30.02,North,0,3.4,5.8,66,0.00,,,0.00,WUHU216HW,2013-06-06 01:39:00,
2013-06-05 18:44:00,67.3,56.0,30.02,NE,45,2.5,9.6,67,0.00,,,0.00,WUHU216HW,2013-06-06 01:44:00,
2013-06-05 18:49:00,67.0,55.6,30.02,SSE,158,1.3,9.6,67,0.00,,,0.00,WUHU216HW,2013-06-06 01:49:00,
2013-06-05 18:54:00,66.8,55.9,30.02,ENE,68,4.0,6.9,68,0.00,,,0.00,WUHU216HW,2013-06-06 01:54:00,
2013-06-05 18:59:00,66.8,55.4,30.02,North,0,3.4,5.1,67,0.00,,,0.00,WUHU216HW,2013-06-06 01:59:00,
2013-06-05 19:04:00,66.1,55.6,30.02,NNE,23,5.1,5.1,69,0.00,,,0.00,WUHU216HW,2013-06-06 02:04:00,
2013-06-05 19:09:00,65.7,55.3,30.02,NNE,23,3.1,5.6,69,0.00,,,0.00,WUHU216HW,2013-06-06 02:09:00,
2013-06-05 19:14:00,65.5,55.1,30.02,East,90,1.1,6.3,69,0.00,,,0.00,WUHU216HW,2013-06-06 02:14:00,
2013-06-05 19:19:00,65.2,55.2,30.02,NNE,23,3.1,6.3,70,0.00,,,0.00,WUHU216HW,2013-06-06 02:19:00,
2013-06-05 19:24:00,65.2,55.2,30.02,East,90,1.8,6.7,70,0.00,,,0.00,WUHU216HW,2013-06-06 02:24:00,
2013-06-05 19:29:00,64.6,54.7,30.02,NNW,338,1.8,6.7,70,0.00,,,0.00,WUHU216HW,2013-06-06 02:29:00,
2013-06-05 19:34:00,64.4,54.5,30.02,North,0,3.1,4.3,70,0.00,,,0.00,WUHU216HW,2013-06-06 02:34:00,
2013-06-05 19:39:00,64.4,54.5,30.02,NNE,23,2.0,4.0,70,0.00,,,0.00,WUHU216HW,2013-06-06 02:39:00,
2013-06-05 19:44:00,64.3,54.7,30.02,NNE,23,3.4,4.9,71,0.00,,,0.00,WUHU216HW,2013-06-06 02:44:00,
2013-06-05 19:49:00,64.3,54.4,30.02,ESE,113,2.9,6.3,70,0.00,,,0.00,WUHU216HW,2013-06-06 02:49:00,
2013-06-05 19:54:00,64.3,54.4,30.02,NNW,338,4.3,6.3,70,0.00,,,0.00,WUHU216HW,2013-06-06 02:54:00,
2013-06-05 19:59:00,64.1,54.2,30.02,NNW,338,3.4,8.1,70,0.00,,,0.00,WUHU216HW,2013-06-06 02:59:00,
2013-06-05 20:04:00,63.7,54.2,30.02,NE,45,3.4,8.1,71,0.00,,,0.00,WUHU216HW,2013-06-06 03:04:00,
2013-06-05 20:09:00,63.5,54.4,30.02,ENE,68,2.0,7.8,72,0.00,,,0.00,WUHU216HW,2013-06-06 03:09:00,
2013-06-05 20:14:00,63.4,54.2,30.02,North,0,3.6,7.4,72,0.00,,,0.00,WUHU216HW,2013-06-06 03:14:00,
2013-06-05 20:19:00,63.0,54.2,30.02,NE,45,4.9,7.6,73,0.00,,,0.00,WUHU216HW,2013-06-06 03:19:00,
2013-06-05 20:24:00,63.0,54.2,30.02,ENE,68,5.4,7.6,73,0.00,,,0.00,WUHU216HW,2013-06-06 03:24:00,
2013-06-05 20:29:00,62.8,54.0,30.02,NE,45,2.2,7.6,73,0.00,,,0.00,WUHU216HW,2013-06-06 03:29:00,
2013-06-05 20:34:00,62.6,53.8,30.02,NW,315,4.0,7.2,73,0.00,,,0.00,WUHU216HW,2013-06-06 03:34:00,
2013-06-05 20:39:00,62.6,53.8,30.02,NNW,338,3.8,4.9,73,0.00,,,0.00,WUHU216HW,2013-06-06 03:39:00,
2013-06-05 20:44:00,62.6,53.8,30.02,North,0,3.8,7.6,73,0.00,,,0.00,WUHU216HW,2013-06-06 03:44:00,
2013-06-05 20:49:00,62.3,53.5,30.02,ENE,68,3.1,7.6,73,0.00,,,0.00,WUHU216HW,2013-06-06 03:49:00,
2013-06-05 20:54:00,62.3,53.5,30.02,ESE,113,1.8,6.3,73,0.00,,,0.00,WUHU216HW,2013-06-06 03:54:00,
2013-06-05 20:59:00,62.1,53.7,30.02,ENE,68,4.7,8.3,74,0.00,,,0.00,WUHU216HW,2013-06-06 03:59:00,
2013-06-05 21:01:00,62.1,53.4,30.02,North,0,6.9,8.3,73,0.00,,,0.00,WUHU216HW,2013-06-06 04:01:00,
2013-06-05 21:02:00,62.1,53.7,30.02,NNE,23,2.5,8.3,74,0.00,,,0.00,WUHU216HW,2013-06-06 04:02:00,
2013-06-05 21:07:00,61.9,53.6,30.02,NE,45,3.1,8.3,74,0.00,,,0.00,WUHU216HW,2013-06-06 04:07:00,
2013-06-05 21:12:00,61.7,53.4,30.02,NE,45,7.2,7.6,74,0.00,,,0.00,WUHU216HW,2013-06-06 04:12:00,
2013-06-05 21:17:00,61.6,53.6,30.02,NNE,23,4.9,7.6,75,0.00,,,0.00,WUHU216HW,2013-06-06 04:17:00,
2013-06-05 21:22:00,61.6,53.6,30.02,East,90,3.1,7.6,75,0.00,,,0.00,WUHU216HW,2013-06-06 04:22:00,
2013-06-05 21:27:00,61.4,53.4,30.02,ENE,68,5.4,7.6,75,0.00,,,0.00,WUHU216HW,2013-06-06 04:27:00,
2013-06-05 21:32:00,61.2,53.7,30.02,NE,45,5.8,6.9,76,0.00,,,0.00,WUHU216HW,2013-06-06 04:32:00,
2013-06-05 21:37:00,61.0,53.5,30.02,East,90,3.4,8.3,76,0.00,,,0.00,WUHU216HW,2013-06-06 04:37:00,
2013-06-05 21:42:00,61.0,53.5,30.02,NE,45,2.0,8.3,76,0.00,,,0.00,WUHU216HW,2013-06-06 04:42:00,
2013-06-05 21:47:00,61.0,53.5,30.02,NNE,23,2.2,9.2,76,0.00,,,0.00,WUHU216HW,2013-06-06 04:47:00,
2013-06-05 21:52:00,60.8,53.3,30.02,ENE,68,1.1,9.2,76,0.00,,,0.00,WUHU216HW,2013-06-06 04:52:00,
2013-06-05 21:57:00,60.8,52.9,30.03,NW,315,0.7,3.1,75,0.00,,,0.00,WUHU216HW,2013-06-06 04:57:00,
2013-06-05 22:02:00,61.0,53.1,30.03,West,270,2.7,3.8,75,0.00,,,0.00,WUHU216HW,2013-06-06 05:02:00,
2013-06-05 22:07:00,60.8,52.9,30.03,North,0,1.3,4.0,75,0.00,,,0.00,WUHU216HW,2013-06-06 05:07:00,
2013-06-05 22:12:00,60.7,53.1,30.03,NNW,338,5.1,6.3,76,0.00,,,0.00,WUHU216HW,2013-06-06 05:12:00,
2013-06-05 22:17:00,60.7,53.1,30.03,ENE,68,1.8,6.9,76,0.00,,,0.00,WUHU216HW,2013-06-06 05:17:00,
2013-06-05 22:22:00,60.5,52.9,30.03,ENE,68,2.2,6.9,76,0.00,,,0.00,WUHU216HW,2013-06-06 05:22:00,
2013-06-05 22:27:00,60.5,52.9,30.03,North,0,5.4,6.5,76,0.00,,,0.00,WUHU216HW,2013-06-06 05:27:00,
2013-06-05 22:32:00,60.5,52.9,30.03,ESE,113,1.1,7.4,76,0.00,,,0.00,WUHU216HW,2013-06-06 05:32:00,
2013-06-05 22:37:00,60.5,52.9,30.03,NNE,23,4.3,7.4,76,0.00,,,0.00,WUHU216HW,2013-06-06 05:37:00,
2013-06-05 22:42:00,60.5,52.9,30.03,NE,45,1.8,6.9,76,0.00,,,0.00,WUHU216HW,2013-06-06 05:42:00,
2013-06-05 22:47:00,60.5,52.9,30.02,NNE,23,1.8,6.9,76,0.00,,,0.00,WUHU216HW,2013-06-06 05:47:00,
2013-06-05 22:52:00,60.7,53.1,30.03,NNW,338,3.1,4.0,76,0.00,,,0.00,WUHU216HW,2013-06-06 05:52:00,
2013-06-05 22:57:00,60.7,52.7,30.03,NW,315,0.0,4.0,75,0.00,,,0.00,WUHU216HW,2013-06-06 05:57:00,
2013-06-05 23:02:00,60.7,52.7,30.03,ESE,113,2.2,4.0,75,0.00,,,0.00,WUHU216HW,2013-06-06 06:02:00,
2013-06-05 23:07:00,60.7,52.7,30.03,East,90,1.8,4.0,75,0.00,,,0.00,WUHU216HW,2013-06-06 06:07:00,
2013-06-05 23:12:00,60.5,52.6,30.03,ENE,68,0.4,4.0,75,0.00,,,0.00,WUHU216HW,2013-06-06 06:12:00,
2013-06-05 23:17:00,60.5,52.6,30.02,SW,225,0.4,2.7,75,0.00,,,0.00,WUHU216HW,2013-06-06 06:17:00,
2013-06-05 23:22:00,60.5,52.6,30.03,ESE,113,1.6,5.1,75,0.00,,,0.00,WUHU216HW,2013-06-06 06:22:00,
2013-06-05 23:27:00,60.5,52.6,30.03,SE,135,0.7,5.1,75,0.00,,,0.00,WUHU216HW,2013-06-06 06:27:00,
2013-06-05 23:32:00,60.5,52.2,30.02,SE,135,0.4,1.8,74,0.00,,,0.00,WUHU216HW,2013-06-06 06:32:00,
2013-06-05 23:37:00,60.5,52.2,30.02,ESE,113,1.1,1.8,74,0.00,,,0.00,WUHU216HW,2013-06-06 06:37:00,
2013-06-05 23:42:00,60.3,52.0,30.02,West,270,0.0,1.8,74,0.00,,,0.00,WUHU216HW,2013-06-06 06:42:00,
2013-06-05 23:47:00,60.1,51.8,30.02,ENE,68,0.0,1.8,74,0.00,,,0.00,WUHU216HW,2013-06-06 06:47:00,
2013-06-05 23:52:00,60.1,51.8,30.02,ESE,113,0.2,2.2,74,0.00,,,0.00,WUHU216HW,2013-06-06 06:52:00,
2013-06-05 23:57:00,59.8,51.8,30.03,SE,135,0.7,2.2,75,0.00,,,0.00,WUHU216HW,2013-06-06 06:57:00,